Skip Page Navigation
NASA JPL Caltech
NASA Logo - Jet Propulsion Laboratory + View the NASA Portal
+ Center for Near-Earth Object Studies
JPL Home Earth Solar System Stars & Galaxies Technology
JPL Solar System Dynamics
BODIES ORBITS EPHEMERIDES TOOLS PHYSICAL DATA DISCOVERY FAQ SITE MAP
JPL Small-Body Database Browser
Search: [ help ]  
22093 (2000 AG200)
Classification: Main-belt Asteroid          SPK-ID: 2022093
Ephemeris | Orbit Diagram | Orbital Elements | Mission Design | Physical Parameters | Discovery Circumstances | Close-Approach Data ]

[ show orbit diagram ]
Orbital Elements at Epoch 2459200.5 (2020-Dec-17.0) TDB
Reference: JPL 30 (heliocentric ecliptic J2000)
 Element Value Uncertainty (1-sigma)   Units 
e .1661332259833699 4.1184e-08  
a 2.746243932248178 1.3703e-08 au
q 2.290001568446533 1.1604e-07 au
i 10.18229823530886 4.4467e-06 deg
node 148.8367137620096 1.8524e-05 deg
peri 218.0145079721784 2.0763e-05 deg
M 243.0249168515674 9.7529e-06 deg
tp 2459740.629570439250
(2022-Jun-10.12957044)
4.6391e-05 TDB
period 1662.291148888452
4.55
1.2442e-05
3.406e-08
d
yr
n .2165685597500332 1.6209e-09 deg/d
Q 3.202486296049823 1.598e-08 au
  Orbit Determination Parameters
   # obs. used (total)      1311  
   data-arc span      10785 days (29.53 yr)  
   first obs. used      1990-11-08  
   last obs. used      2020-05-19  
   planetary ephem.      DE441  
   SB-pert. ephem.      SB441-N16  
   condition code      0  
   norm. resid. RMS      .52418  
   source      ORB  
   producer      Otto Matic  
   solution date      2021-Apr-13 03:59:52  

Additional Information
 Earth MOID = 1.29516 au 
 Jupiter MOID = 2.27201 au 
 T_jup = 3.305 
[ show covariance matrix ]

Ephemeris | Orbit Diagram | Orbital Elements | Mission Design | Physical Parameters | Discovery Circumstances | Close-Approach Data ]

Physical Parameter Table
Parameter Symbol Value Units Sigma Reference Notes
absolute magnitude H 14.4   n/a MPO340854  
diameter diameter 3.726 km 0.652 urn:nasa:pds:neowise_diameters_albedos::2.0[mainbelt] (http://adsabs.harvard.edu/abs/2011ApJ...741...68M)  
rotation period rot_per 238.438 h n/a LCDB (Rev. 2020-October); Warner et al., 2009 Result based on less than full coverage, so that the period may be wrong by 30 percent or so.
Published Reference List:
[Pal, A.; Szakats, R.; Kiss, C.; Bodi, A.; et al. (2019) Ap. J. Supl. Ser. 247, id.26.]
geometric albedo albedo 0.266   0.039 urn:nasa:pds:neowise_diameters_albedos::2.0[mainbelt] (http://adsabs.harvard.edu/abs/2011ApJ...741...68M)  

22093 (2000 AG200)          Discovered 2000-Jan-09 by LINEAR at Socorro
Reference: 20010208/Numbers.arcLast Updated: 2004-04-19

[ show close-approach data ]
Alternate Designations
 2000 AG200 = 1990 VK 
Ephemeris | Orbit Diagram | Orbital Elements | Mission Design | Physical Parameters | Discovery Circumstances | Close-Approach Data ]
ABOUT SSD CREDITS/AWARDS PRIVACY/COPYRIGHT GLOSSARY LINKS
FirstGov 2021-Apr-20 03:45 UT
(server date/time)  
NASA Home Page
Site Manager:   Ryan S. Park
Webmaster  Alan B. Chamberlin